Location: Calvatone
(45.1167°N, 10.4333°E)
Time: 09:24:52
(UTC+00:00)

Cosmos 468 Rocket - Pass Details

Date: 28 January 2023
Orbit: 744 x 778 km, 74.0° (Epoch: 28 March)

Event Time Altitude Azimuth Distance (km) Brightness Sun altitude
Rises 18:31:58 0° 341° (NNW) 3,228 7.4 -23.3°
Reaches altitude 10° 18:34:24 10° 346° (NNW) 2,293 6.6 -23.8°
Enters shadow 18:38:37 51° 24° (NNE) 949 4.2 -24.5°
